{"data":{"norad_id":67663,"intl_designator":"2026-022R","name":"STARLINK-36675","alt_names":[],"object_type":"PAYLOAD","status":"ACTIVE","operator":null,"country":"US","launch_date":"2026-02-02","launch_site_code":"AFWTR","launch_vehicle":null,"mission":null,"orbit_class":"UNKNOWN","rcs_meters":null,"size_class":null,"mass_kg":null,"dimensions":null,"purposes":["comms"],"wikipedia_slug":null,"has_3d_model":false,"image_url":null,"decayed_at":null,"tle_current":{"epoch":"2026-05-25T01:57:50.995008Z","epoch_age_seconds":58173,"freshness":"FRESH","line1":"1 67663U 26022R   26145.08184022  .00015330  00000+0  47613-3 0  9998","line2":"2 67663  97.2847 178.3977 0001729  95.6540 264.4900 15.33449177 17284","mean_motion":15.33449177,"eccentricity":0.0001729,"inclination_deg":97.2847,"raan_deg":178.3977,"arg_perigee_deg":95.654,"mean_anomaly_deg":264.49,"bstar":0.00047613,"rev_number":1728,"period_min":93.90594886341,"perigee_km":464.34747653971,"apogee_km":466.71401684651,"semimajor_km":6843.6677466931,"source":"CELESTRAK","updated_at":"2026-05-25T13:38:21.659942Z"}}}